Location: 3 Angels Observatory
(30.5437°N, 88.5068°W)
Time: 12:24:43
(UTC-06:00)

Daily predictions for brighter satellites

Satellite Brightness Start Highest point End
(mag) Time Altitude Azimuth Time Altitude Azimuth Time Altitude Azimuth
BREEZE M DEB (TANK) 4.3 17:03:36 10° NW 17:17:14 79° SW 17:20:59 10° SE
IDEFIX/ARIANE 42P 4.5 17:13:12 10° SSW 17:17:57 35° W 17:22:43 10° NNW
Meteor 1-20 Rocket 4.3 17:13:34 10° N 17:18:54 50° E 17:24:10 10° SSE
Cosmos 1354 Rocket 4.0 17:13:45 10° S 17:19:00 69° ESE 17:24:14 10° NNE
Cosmos 405 Rocket 3.8 17:16:43 10° SSE 17:19:49 24° E 17:22:53 10° NE
Cosmos 1633 3.4 17:19:01 10° NNE 17:22:18 30° E 17:25:33 10° SE
Cosmos 1733 Rocket 4.3 17:19:51 10° NNW 17:24:07 47° W 17:28:22 10° SSW
Meteor 1-25 Rocket 4.3 17:18:41 10° N 17:24:29 65° E 17:30:11 10° SSE
Cosmos 1908 Rocket 3.5 17:20:38 10° N 17:24:55 63° E 17:29:12 10° SSE
Cosmos 1782 2.8 17:21:27 10° S 17:25:26 67° E 17:29:26 10° NNE
Cosmos 1464 Rocket 4.2 17:20:58 10° SSE 17:26:47 49° E 17:32:39 10° NNE
SKYMED 2 4.1 17:24:23 10° NNE 17:28:25 37° E 17:32:26 10° SSE
CZ-2C R/B 4.3 17:24:58 10° SSW 17:29:30 36° W 17:34:10 10° NNW
BREEZE-M R/B 4.0 17:28:42 10° N 17:31:12 22° NE 17:34:57 10° E
CZ-2C R/B 3.7 17:27:30 10° NNE 17:32:02 87° ESE 17:36:38 10° SSW
Okean 1-7 3.0 17:33:48 10° S 17:38:09 77° E 17:42:33 10° N
Cosmos 304 Rocket 4.4 17:34:17 10° NNW 17:39:01 62° WSW 17:43:42 10° S
GPS 2-05 Rocket1 3.3 17:36:19 10° W 17:39:21 43° NNW 17:41:40 16° ENE
ISS -2.0 17:38:57 10° S 17:41:18 18° SE 17:42:42 14° E
Delta 168 4.3 17:39:01 10° SW 17:43:01 39° SSE 17:48:22 12° E
Meteor 1-27 Rocket 4.1 17:40:03 10° SSE 17:45:37 46° E 17:51:16 10° NNE
OAO 3 Copernicus 4.3 17:40:41 10° WNW 17:45:46 70° NNE 17:50:04 14° E
Orbus 7S 4.3 17:47:35 10° WSW 17:50:01 40° SSE 17:53:10 15° E
Sich 1 Rocket 3.8 17:46:59 10° N 17:51:24 75° W 17:55:52 10° S
Cosmos 2369 Rocket 3.4 17:51:50 10° SSE 17:56:02 22° E 17:57:34 19° ENE
Meteor 1-10 Rocket 4.4 17:50:45 10° S 17:56:23 78° W 18:02:09 10° N
Cosmos 44 3.9 17:53:06 10° N 17:57:28 34° ENE 18:02:02 10° SE
Cosmos 1833 Rocket 2.6 17:52:43 10° NNW 17:58:17 62° ENE 18:03:50 10° SSE
NOAA 12 4.4 17:57:13 10° SE 18:02:11 42° ENE 18:07:10 10° N
Thor Agena Rocket 4.2 18:04:54 22° NE 18:07:11 31° E 18:11:44 10° SSE
ALOS 2.5 18:02:49 10° SSE 18:07:15 46° ENE 18:11:43 10° N
YAOGAN 1 2.9 18:05:23 10° S 18:09:41 69° W 18:14:00 10° NNW
Cosmos 1782 Rocket 3.9 18:05:25 10° NNW 18:09:44 65° W 18:14:04 10° S
Cosmos 405 3.0 18:07:18 10° N 18:10:49 53° E 18:14:18 10° SSE
SL-27 R/B 4.3 18:09:21 10° NW 18:12:22 31° WSW 18:15:24 10° SSW
Cosmos 540 Rocket 3.5 18:08:40 10° NNW 18:13:50 84° WSW 18:18:58 10° SSE
Cosmos 968 Rocket 3.4 18:10:14 10° SSW 18:15:24 86° WNW 18:20:38 10° NNE
Tiangong 1 2.3 18:13:32 10° W 18:15:43 23° NNW 18:15:52 23° NNW
COSMO-SKYMED 1 3.4 18:12:16 10° N 18:16:29 51° WNW 18:20:40 10° SSW
Cosmos 1441 Rocket 3.9 18:15:59 10° SSW 18:19:51 56° W 18:23:44 10° N
USA 234 3.4 18:14:25 16° NE 18:19:52 73° NW 18:26:22 10° SW
Cosmos 1943 Rocket 3.6 18:16:23 10° SSE 18:19:04 19° ESE 18:19:04 19° ESE
Cosmos 2084 Rocket 3.7 18:18:49 10° S 18:23:07 48° ESE 18:23:39 45° E
CZ-4C R/B 3.2 18:22:10 10° NNW 18:29:12 44° NE 18:32:49 28° ESE
Meteor 1-11 Rocket 3.6 18:27:22 10° N 18:33:11 82° E 18:38:50 10° S
Centaur D AC-29 3.1 18:35:03 10° WSW 18:38:38 21° SSW 18:40:36 14° SSE
ERS-2 4.0 18:35:32 10° SSW 18:38:50 32° W 18:42:10 10° NW
Cosmos 1634 Rocket 4.0 18:34:04 10° SSE 18:40:01 54° E 18:42:05 38° NE
Nadezhda 4 Rocket 3.8 18:36:21 10° N 18:42:30 84° E 18:48:37 10° S
NOSS 3-1 (C) 3.5 18:38:52 10° S 18:43:57 47° ESE 18:43:57 47° ESE
Cosmos 2151 Rocket 3.5 18:40:33 10° N 18:44:59 88° WSW 18:49:25 10° S
OAO 3 Rocket 3.5 18:43:44 10° W 18:48:34 54° N 18:48:44 53° N
SEDSat Delta rocket 3.8 18:46:40 10° SW 18:49:49 37° S 18:49:49 37° S
Cosmos 2082 Rocket 3.4 18:45:26 10° NW 18:50:45 43° WSW 18:56:01 10° S
Timation 2 Rocket 3.9 18:54:46 10° NNW 19:01:28 79° ENE 19:03:17 50° SE
Cosmos 1092 Rocket 3.8 18:55:27 10° N 19:01:38 82° E 19:07:51 10° S
Centaur D AC-28 3.9 18:56:28 10° W 19:02:10 78° S 19:11:47 35° E
Centaur D AC-28 3.9 18:56:28 10° W 19:02:10 78° S 19:11:45 35° E
Centaur D AC-28 3.9 18:56:28 10° W 19:02:10 78° S 19:11:48 35° E
Centaur D AC-28 3.9 18:56:28 10° W 19:02:11 78° S 19:11:47 35° E
Cosmos 1674 Rocket 4.5 19:02:32 10° SSW 19:06:45 46° W 19:07:04 45° WNW
USA 229 DEB 4.3 19:00:25 10° SW 19:06:56 52° WNW 19:10:13 29° N
USA 229 4.2 19:00:30 10° SW 19:07:02 53° WNW 19:10:16 30° N
MOS 1-B Rocket 4.4 19:01:41 10° SSE 19:08:41 77° ENE 19:16:57 10° N
NOSS 3-1 (A) 4.3 19:05:13 10° S 19:08:17 32° S 19:08:17 32° S
FengYun 1-2 T 4.3 19:07:55 10° S 19:14:02 68° NW 19:18:59 10° NNW
ISS -0.5 19:14:46 10° W 19:15:23 14° W 19:15:23 14° W
Cosmos 2369 Rocket 3.4 19:34:31 10° SW 19:39:26 38° WNW 19:39:26 38° WNW
Cosmos 1943 Rocket 4.3 19:58:45 10° SW 20:00:40 20° WSW 20:00:40 20° WSW
CZ-4C R/B 4.1 20:10:53 10° NW 20:17:47 37° WSW 20:18:13 37° WSW
